• In Belarus
  • List of Countries
  • For 7 days
  • Water Temperature
  • Satellite Maps
  • Weather Map
  • Weather Widgets
  • user-avatar
    Login

    Hourly Weather Bregenz

    Today, 16 December, Sunday

    Time Temperature Precipitation Wind Pressure Humidity
    00:00 -7°C° 0 mm 1 mps 642 mmHg 56%
    01:00 -6°C° 0 mm 1 mps 642 mmHg 54%
    02:00 -6°C° 0.7 mm 1 mps 641 mmHg 64%
    03:00 -7°C° 0.7 mm 2 mps 641 mmHg 74%
    04:00 -6°C° 0.7 mm 2 mps 641 mmHg 84%
    05:00 -6°C° 1.2 mm 2 mps 641 mmHg 87%
    06:00 -5°C° 1.2 mm 2 mps 641 mmHg 89%
    07:00 -5°C° 1.2 mm 2 mps 641 mmHg 91%
    08:00 -4°C° 0.4 mm 2 mps 641 mmHg 91%
    09:00 -3°C° 0.4 mm 2 mps 641 mmHg 91%
    10:00 -3°C° 0.4 mm 2 mps 642 mmHg 90%
    11:00 -2°C° 0.1 mm 2 mps 642 mmHg 91%
    12:00 +1°C° 0.1 mm 1 mps 642 mmHg 91%
    13:00 +1°C° 0.1 mm 1 mps 642 mmHg 92%
    14:00 +1°C° 0.1 mm 1 mps 642 mmHg 93%
    15:00 0°C° 0.1 mm 1 mps 642 mmHg 94%
    16:00 0°C° 0.1 mm 1 mps 642 mmHg 95%
    17:00 -1°C° 0.3 mm 1 mps 642 mmHg 95%
    18:00 -1°C° 0.3 mm 1 mps 642 mmHg 95%
    19:00 -2°C° 0.3 mm 1 mps 642 mmHg 96%
    20:00 -2°C° 0.3 mm 1 mps 643 mmHg 95%
    21:00 -2°C° 0.3 mm 1 mps 643 mmHg 95%
    22:00 -2°C° 0.3 mm 1 mps 643 mmHg 95%
    23:00 -3°C° 0 mm 0 mps 643 mmHg 95%

    Tomorrow, 17 December, Monday

    Time Temperature Precipitation Wind Pressure Humidity
    00:00 -4°C° 0 mm 0 mps 643 mmHg 94%
    01:00 -4°C° 0 mm 0 mps 643 mmHg 94%
    02:00 -4°C° 0 mm 0 mps 643 mmHg 93%
    03:00 -4°C° 0 mm 0 mps 643 mmHg 93%
    04:00 -4°C° 0 mm 1 mps 643 mmHg 92%
    05:00 -4°C° 0 mm 1 mps 643 mmHg 92%
    06:00 -4°C° 0 mm 1 mps 644 mmHg 92%
    07:00 -4°C° 0 mm 1 mps 644 mmHg 92%
    08:00 -3°C° 0 mm 1 mps 645 mmHg 91%
    09:00 -2°C° 0 mm 1 mps 646 mmHg 90%
    10:00 -2°C° 0 mm 1 mps 646 mmHg 89%
    11:00 -1°C° 0 mm 1 mps 647 mmHg 88%
    12:00 -2°C° 0 mm 2 mps 647 mmHg 88%
    13:00 -1°C° 0 mm 2 mps 647 mmHg 87%
    14:00 -2°C° 0.1 mm 2 mps 648 mmHg 89%
    15:00 -2°C° 0.1 mm 2 mps 648 mmHg 91%
    16:00 -3°C° 0.1 mm 2 mps 648 mmHg 93%
    17:00 -3°C° 0 mm 2 mps 649 mmHg 94%
    18:00 -4°C° 0 mm 2 mps 649 mmHg 94%
    19:00 -4°C° 0 mm 2 mps 650 mmHg 94%
    20:00 -5°C° 0 mm 2 mps 650 mmHg 94%
    21:00 -5°C° 0 mm 2 mps 650 mmHg 93%
    22:00 -6°C° 0 mm 2 mps 650 mmHg 93%
    23:00 -6°C° 0 mm 2 mps 650 mmHg 91%

    Day after tomorrow, 18 December, Tuesday

    Time Temperature Precipitation Wind Pressure Humidity
    00:00 -7°C° 0 mm 2 mps 650 mmHg 89%
    01:00 -7°C° 0 mm 2 mps 650 mmHg 87%
    02:00 -7°C° 0 mm 2 mps 650 mmHg 84%
    03:00 -7°C° 0 mm 2 mps 650 mmHg 80%
    04:00 -7°C° 0 mm 1 mps 650 mmHg 76%
    05:00 -8°C° 0 mm 2 mps 649 mmHg 74%
    06:00 -7°C° 0 mm 2 mps 649 mmHg 71%
    07:00 -7°C° 0 mm 2 mps 649 mmHg 68%
    08:00 -6°C° 0 mm 2 mps 649 mmHg 67%
    09:00 -5°C° 0 mm 2 mps 649 mmHg 67%
    10:00 -4°C° 0 mm 2 mps 649 mmHg 66%
    11:00 -1°C° 0 mm 1 mps 649 mmHg 67%
    12:00 0°C° 0 mm 1 mps 649 mmHg 68%
    13:00 +2°C° 0 mm 1 mps 649 mmHg 69%
    14:00 +1°C° 0 mm 1 mps 648 mmHg 70%
    15:00 0°C° 0 mm 1 mps 648 mmHg 70%
    16:00 -3°C° 0 mm 2 mps 648 mmHg 71%
    17:00 -4°C° 0 mm 2 mps 647 mmHg 69%
    18:00 -5°C° 0 mm 2 mps 647 mmHg 67%
    19:00 -6°C° 0 mm 2 mps 647 mmHg 65%
    20:00 -6°C° 0 mm 2 mps 646 mmHg 64%
    21:00 -6°C° 0 mm 2 mps 646 mmHg 63%
    22:00 -6°C° 0 mm 2 mps 646 mmHg 61%
    23:00 -6°C° 0 mm 2 mps 646 mmHg 61%

    19 December, Wednesday

    Time Temperature Precipitation Wind Pressure Humidity
    00:00 -5°C° 0 mm 2 mps 646 mmHg 61%
    01:00 -5°C° 0 mm 2 mps 646 mmHg 61%
    02:00 -5°C° 0 mm 2 mps 645 mmHg 61%
    03:00 -5°C° 0 mm 2 mps 645 mmHg 61%
    04:00 -4°C° 0 mm 2 mps 645 mmHg 62%
    05:00 -4°C° 0 mm 2 mps 645 mmHg 61%
    06:00 -4°C° 0 mm 2 mps 645 mmHg 61%
    07:00 -4°C° 0 mm 2 mps 645 mmHg 61%
    08:00 -3°C° 0 mm 2 mps 645 mmHg 62%
    09:00 -1°C° 0 mm 1 mps 645 mmHg 64%
    10:00 0°C° 0 mm 1 mps 646 mmHg 65%
    11:00 +1°C° 0 mm 1 mps 645 mmHg 67%
    12:00 +2°C° 0 mm 1 mps 645 mmHg 69%
    13:00 +3°C° 0 mm 1 mps 645 mmHg 71%
    14:00 +2°C° 0 mm 1 mps 644 mmHg 73%
    15:00 -1°C° 0 mm 2 mps 644 mmHg 74%
    16:00 -1°C° 0 mm 2 mps 644 mmHg 75%
    17:00 -2°C° 0 mm 2 mps 644 mmHg 77%
    18:00 -3°C° 0 mm 2 mps 644 mmHg 78%
    19:00 -3°C° 0 mm 2 mps 644 mmHg 80%
    20:00 -3°C° 0.1 mm 2 mps 644 mmHg 81%
    21:00 -3°C° 0.1 mm 2 mps 644 mmHg 83%
    22:00 -1°C° 0.1 mm 1 mps 644 mmHg 84%
    23:00 -2°C° 0.2 mm 1 mps 644 mmHg 86%

    20 December, Thursday

    Time Temperature Precipitation Wind Pressure Humidity
    00:00 -2°C° 0.2 mm 1 mps 644 mmHg 88%
    01:00 -2°C° 0.2 mm 1 mps 644 mmHg 89%
    02:00 -2°C° 0.6 mm 1 mps 644 mmHg 91%
    03:00 -2°C° 0.6 mm 1 mps 644 mmHg 93%
    04:00 -2°C° 0.6 mm 1 mps 645 mmHg 95%
    05:00 -2°C° 0.6 mm 1 mps 645 mmHg 95%
    06:00 -2°C° 0.6 mm 1 mps 645 mmHg 96%
    07:00 -2°C° 0.6 mm 1 mps 645 mmHg 96%
    08:00 -1°C° 0.3 mm 1 mps 646 mmHg 96%
    09:00 -1°C° 0.3 mm 1 mps 646 mmHg 95%
    10:00 -1°C° 0.3 mm 1 mps 646 mmHg 95%
    11:00 0°C° 0.1 mm 1 mps 646 mmHg 94%
    12:00 0°C° 0.1 mm 1 mps 647 mmHg 94%
    13:00 -1°C° 0.1 mm 2 mps 647 mmHg 93%
    14:00 -2°C° 0.1 mm 2 mps 647 mmHg 94%
    15:00 -2°C° 0.1 mm 2 mps 647 mmHg 95%
    16:00 -3°C° 0.1 mm 2 mps 647 mmHg 96%
    17:00 -1°C° 0 mm 1 mps 647 mmHg 96%
    18:00 -2°C° 0 mm 1 mps 648 mmHg 96%
    19:00 -3°C° 0 mm 1 mps 648 mmHg 96%
    20:00 -3°C° 0 mm 1 mps 648 mmHg 95%
    21:00 -3°C° 0 mm 1 mps 648 mmHg 95%
    22:00 -4°C° 0 mm 1 mps 649 mmHg 94%
    23:00 -6°C° 0 mm 2 mps 648 mmHg 92%

    21 December, Friday

    Time Temperature Precipitation Wind Pressure Humidity
    00:00 -7°C° 0 mm 2 mps 648 mmHg 91%
    01:00 -7°C° 0 mm 2 mps 648 mmHg 89%
    02:00 -7°C° 0 mm 2 mps 648 mmHg 86%
    03:00 -7°C° 0 mm 2 mps 648 mmHg 84%
    04:00 -8°C° 0 mm 2 mps 648 mmHg 81%
    05:00 -8°C° 0 mm 2 mps 648 mmHg 78%
    06:00 -8°C° 0 mm 2 mps 648 mmHg 76%
    07:00 -8°C° 0 mm 2 mps 648 mmHg 73%
    08:00 -6°C° 0 mm 2 mps 648 mmHg 72%
    09:00 -5°C° 0 mm 2 mps 648 mmHg 70%
    10:00 -4°C° 0 mm 2 mps 648 mmHg 69%
    11:00 -3°C° 0 mm 2 mps 648 mmHg 70%
    12:00 -1°C° 0 mm 2 mps 647 mmHg 72%
    13:00 +2°C° 0 mm 1 mps 647 mmHg 74%
    14:00 -1°C° 0.3 mm 2 mps 647 mmHg 75%
    15:00 -1°C° 0.3 mm 2 mps 646 mmHg 76%
    16:00 -1°C° 0.3 mm 2 mps 646 mmHg 77%
    17:00 -2°C° 0.7 mm 2 mps 646 mmHg 79%
    18:00 -2°C° 0.7 mm 3 mps 646 mmHg 82%
    19:00 -2°C° 0.7 mm 3 mps 646 mmHg 84%
    20:00 -1°C° 0.5 mm 3 mps 647 mmHg 86%
    21:00 -1°C° 0.5 mm 3 mps 647 mmHg 88%
    22:00 -1°C° 0.5 mm 3 mps 648 mmHg 90%
    23:00 -1°C° 0.2 mm 2 mps 648 mmHg 90%
    Show more